This is the latest recevied weather packets stored in our database for station/object SP3TOM-10. If no packets are shown the sender has not sent any weather packets the latest 10 day(s).
| Time | Temp. | Humidity | Pressure | Rain* | Wind** | Luminosity | Snow |
|---|---|---|---|---|---|---|---|
| 1787412779 | 22.78° C | 49% | 1001.9 hPa | - | - | - | - |
| 1787410979 | 22.78° C | 49% | 1001.6 hPa | - | - | - | - |
| 1787410079 | 22.78° C | 51% | 1001.7 hPa | - | - | - | - |
| 1787409178 | 22.22° C | 52% | 1001.5 hPa | - | - | - | - |
| 1787408278 | 22.22° C | 54% | 1001.4 hPa | - | - | - | - |
| 1787406478 | 21.67° C | 58% | 1001.1 hPa | - | - | - | - |
| 1787405578 | 21.11° C | 57% | 1001 hPa | - | - | - | - |
| 1787404677 | 21.11° C | 57% | 1000.9 hPa | - | - | - | - |
| 1787403777 | 21.67° C | 59% | 1000.7 hPa | - | - | - | - |
| 1787402877 | 21.11° C | 60% | 1000.7 hPa | - | - | - | - |
| 1787401977 | 21.11° C | 59% | 1000.6 hPa | - | - | - | - |
| 1787401077 | 21.11° C | 58% | 1000.7 hPa | - | - | - | - |
| 1787400176 | 21.11° C | 61% | 1000.8 hPa | - | - | - | - |
| 1787399276 | 21.67° C | 57% | 1000.1 hPa | - | - | - | - |
| 1787398376 | 21.67° C | 57% | 999.9 hPa | - | - | - | - |
| 1787397476 | 21.67° C | 58% | 999.8 hPa | - | - | - | - |
| 1787396576 | 21.67° C | 58% | 999.8 hPa | - | - | - | - |
| 1787395675 | 21.67° C | 58% | 999.6 hPa | - | - | - | - |
| 1787394774 | 21.67° C | 58% | 999.4 hPa | - | - | - | - |
| 1787393874 | 21.11° C | 60% | 999.4 hPa | - | - | - | - |
| 1787392974 | 21.11° C | 61% | 999.4 hPa | - | - | - | - |
| 1787392074 | 21.11° C | 61% | 999.2 hPa | - | - | - | - |
| 1787391174 | 20.56° C | 61% | 999 hPa | - | - | - | - |
| 1787390273 | 20.56° C | 61% | 998.9 hPa | - | - | - | - |
| 1787389373 | 21.11° C | 61% | 998.8 hPa | - | - | - | - |
* Rain since midnight (hover to see other rain measurements)
** Current wind speed in m/s (hover to see current wind gust speed)